TimeCEST,TemperatureF,Dew PointF,Humidity,Sea Level PressureIn,VisibilityMPH,Wind Direction,Wind SpeedMPH,Gust SpeedMPH,PrecipitationIn,Events,Conditions,WindDirDegrees,DateUTC
12:00 AM,60.8,59.0,94,29.53,6.2,West,18.4,-,N/A,Rain,Light Rain,260,2013-09-17 22:00:00
12:30 AM,60.8,59.0,94,29.53,6.2,West,18.4,-,N/A,,Mostly Cloudy,270,2013-09-17 22:30:00
1:00 AM,60.8,59.0,94,29.53,6.2,West,17.3,-,N/A,,Mostly Cloudy,270,2013-09-17 23:00:00
1:30 AM,60.8,57.2,88,29.53,6.2,West,16.1,-,N/A,,Scattered Clouds,260,2013-09-17 23:30:00
2:00 AM,60.8,57.2,88,29.53,6.2,West,16.1,-,N/A,,Mostly Cloudy,260,2013-09-18 00:00:00
2:30 AM,60.8,57.2,88,29.53,6.2,West,18.4,-,N/A,,Mostly Cloudy,260,2013-09-18 00:30:00
3:00 AM,60.8,55.4,82,29.53,6.2,West,19.6,-,N/A,,Mostly Cloudy,260,2013-09-18 01:00:00
3:30 AM,60.8,55.4,82,29.56,6.2,West,19.6,-,N/A,,Mostly Cloudy,260,2013-09-18 01:30:00
4:00 AM,60.8,55.4,82,29.53,6.2,WSW,17.3,31.1,N/A,,Mostly Cloudy,250,2013-09-18 02:00:00
4:30 AM,60.8,53.6,77,29.53,6.2,WSW,18.4,-,N/A,,Mostly Cloudy,250,2013-09-18 02:30:00
5:00 AM,59.0,53.6,82,29.53,6.2,West,13.8,-,N/A,,Mostly Cloudy,260,2013-09-18 03:00:00
5:30 AM,59.0,53.6,82,29.53,6.2,WSW,16.1,-,N/A,,Mostly Cloudy,250,2013-09-18 03:30:00
6:00 AM,59.0,53.6,82,29.56,6.2,West,19.6,-,N/A,,Mostly Cloudy,260,2013-09-18 04:00:00
6:30 AM,57.2,53.6,88,29.56,6.2,WNW,13.8,-,N/A,Rain,Light Rain,290,2013-09-18 04:30:00
7:00 AM,57.2,53.6,88,29.56,6.2,West,17.3,-,N/A,,Mostly Cloudy,270,2013-09-18 05:00:00
7:30 AM,57.2,53.6,88,29.56,6.2,West,12.7,-,N/A,,Mostly Cloudy,260,2013-09-18 05:30:00
8:00 AM,57.2,53.6,88,29.56,6.2,WSW,10.4,-,N/A,,Mostly Cloudy,250,2013-09-18 06:00:00
8:30 AM,57.2,53.6,88,29.59,6.2,WSW,11.5,-,N/A,,Mostly Cloudy,250,2013-09-18 06:30:00
9:00 AM,59.0,53.6,82,29.59,6.2,WSW,12.7,-,N/A,,Mostly Cloudy,250,2013-09-18 07:00:00
9:30 AM,59.0,53.6,82,29.59,6.2,West,16.1,-,N/A,,Mostly Cloudy,260,2013-09-18 07:30:00
10:00 AM,60.8,53.6,77,29.59,6.2,West,17.3,-,N/A,,Mostly Cloudy,260,2013-09-18 08:00:00
10:30 AM,62.6,53.6,72,29.59,6.2,West,17.3,-,N/A,,Mostly Cloudy,260,2013-09-18 08:30:00
11:00 AM,60.8,51.8,72,29.62,6.2,West,19.6,-,N/A,,Mostly Cloudy,270,2013-09-18 09:00:00
11:30 AM,62.6,53.6,72,29.62,6.2,West,17.3,-,N/A,,Mostly Cloudy,270,2013-09-18 09:30:00
12:00 PM,62.6,53.6,72,29.62,6.2,West,19.6,-,N/A,,Mostly Cloudy,270,2013-09-18 10:00:00
12:30 PM,64.4,53.6,68,29.62,6.2,West,20.7,-,N/A,,Mostly Cloudy,270,2013-09-18 10:30:00
1:00 PM,62.6,51.8,68,29.62,6.2,WNW,18.4,-,N/A,Rain,Light Rain,290,2013-09-18 11:00:00
1:30 PM,59.0,53.6,82,29.65,3.7,West,13.8,-,N/A,Rain,Light Rain,270,2013-09-18 11:30:00
2:00 PM,59.0,55.4,88,29.65,6.2,West,13.8,-,N/A,Rain,Light Rain,280,2013-09-18 12:00:00
2:30 PM,60.8,57.2,88,29.65,6.2,West,16.1,-,N/A,,Mostly Cloudy,280,2013-09-18 12:30:00
3:00 PM,60.8,55.4,82,29.65,6.2,WNW,16.1,-,N/A,,Mostly Cloudy,290,2013-09-18 13:00:00
3:30 PM,62.6,55.4,77,29.68,6.2,West,15.0,-,N/A,,Mostly Cloudy,280,2013-09-18 13:30:00
4:00 PM,60.8,53.6,77,29.68,6.2,West,15.0,-,N/A,Rain,Light Rain,280,2013-09-18 14:00:00
4:30 PM,59.0,55.4,88,29.68,6.2,WNW,8.1,-,N/A,,Mostly Cloudy,300,2013-09-18 14:30:00
5:00 PM,60.8,55.4,82,29.68,6.2,West,9.2,-,N/A,,Mostly Cloudy,280,2013-09-18 15:00:00
5:30 PM,60.8,55.4,82,29.71,6.2,West,9.2,-,N/A,,Mostly Cloudy,280,2013-09-18 15:30:00
6:00 PM,59.0,55.4,88,29.71,6.2,WNW,6.9,-,N/A,Rain,Light Rain,290,2013-09-18 16:00:00
6:30 PM,59.0,55.4,88,29.74,6.2,West,9.2,-,N/A,,Mostly Cloudy,280,2013-09-18 16:30:00
7:00 PM,60.8,55.4,82,29.74,6.2,NW,8.1,-,N/A,,Mostly Cloudy,310,2013-09-18 17:00:00
7:30 PM,59.0,51.8,77,29.77,6.2,NW,9.2,-,N/A,,Mostly Cloudy,320,2013-09-18 17:30:00
8:00 PM,57.2,51.8,82,29.77,6.2,NW,10.4,-,N/A,,Mostly Cloudy,310,2013-09-18 18:00:00
8:30 PM,57.2,50.0,77,29.80,6.2,NW,6.9,-,N/A,,Mostly Cloudy,320,2013-09-18 18:30:00
9:00 PM,55.4,50.0,82,29.80,-9999.0,NW,8.1,-,N/A,,Clear,310,2013-09-18 19:00:00
9:30 PM,55.4,48.2,77,29.83,-9999.0,NW,6.9,-,N/A,,Clear,320,2013-09-18 19:30:00
10:00 PM,53.6,50.0,88,29.83,-9999.0,WNW,5.8,-,N/A,,Clear,290,2013-09-18 20:00:00
10:30 PM,55.4,50.0,82,29.86,-9999.0,West,5.8,-,N/A,,Clear,270,2013-09-18 20:30:00
11:00 PM,55.4,50.0,82,29.86,6.2,West,5.8,-,N/A,,Mostly Cloudy,280,2013-09-18 21:00:00
11:30 PM,55.4,50.0,82,29.86,6.2,West,6.9,-,N/A,,Mostly Cloudy,280,2013-09-18 21:30:00